Flag for Switzerland Weather past 2 weeks in Winterthur, Switzerland

Now
54 °F

Partly cloudy.


Feels Like: 54 °F
Forecast: 38 / 64 °F
Wind: No wind

Location: Zurich-Kloten

Current Time: May 26, 2015 at 3:35:30 AM

Latest Report: May 26, 2015 at 3:20 AM


Visibility: N/A

Pressure: 29.98 "Hg

Humidity: 94%

Dew point: 52 °F

Location of WinterthurLocation

Historic Weather in Winterthur — Graph

°F

Winterthur temperature yesterday

Maximum temperature yesterday: 68 °F (at 1:50 PM)
Minimum temperature yesterday: 54 °F (at 2:50 AM)
Average temperature yesterday: 58 °F

Past Weeks' High & Low Weather Summary

 TemperatureHumidityPressure
High82 °F (May 12, 3:50 PM)100% (May 11, 3:20 AM)30.33 "Hg (May 11, 3:20 AM)
Low43 °F (May 21, 2:50 AM)26% (May 12, 6:20 PM)29.77 "Hg (May 18, 5:50 PM)
Average58 °F73%30.08 "Hg
* Reported May 11 1:20 AM — May 26 1:50 AM, Winterthur, Weather by CustomWeather, © 2015

Note: Actual official high and low records may vary slightly from our data, if they occured in-between our weather recording intervals... More about our weather records

Advertising

Winterthur weather history for previous 24 hours

 ConditionsComfort  
Time TempWeatherWind HumidityBarometerVisibility
1:50 AM
Tue, May 26
54 °FPartly cloudy.1 mph94%29.98 "HgN/A
1:20 AM54 °FScattered showers. Passing clouds.3 mph100%29.98 "HgN/A
12:50 AM54 °FScattered showers. Passing clouds.3 mph100%29.98 "HgN/A
12:20 AM54 °FSprinkles. Partly cloudy.3 mph94%29.98 "HgN/A
11:50 PM
Mon, May 25
54 °FSprinkles. Partly cloudy.3 mph94%29.98 "HgN/A
11:20 PM55 °FScattered showers. Partly cloudy.3 mph88%29.98 "HgN/A
10:20 PM55 °FSprinkles. Partly cloudy.1 mph94%29.98 "HgN/A
9:50 PM55 °FSprinkles. Broken clouds.1 mph94%29.98 "HgN/A
9:20 PM55 °FSprinkles. Partly sunny.2 mph88%29.98 "HgN/A
8:50 PM55 °FSprinkles. Partly sunny.1 mph82%29.95 "HgN/A
8:20 PM57 °FPartly sunny.5 mph88%29.95 "HgN/A
7:50 PM57 °FSprinkles. Partly sunny.2 mph88%29.95 "HgN/A
7:20 PM59 °FPartly sunny.6 mph82%29.95 "HgN/A
6:50 PM59 °FPartly sunny.6 mph82%29.95 "HgN/A
6:20 PM59 °FPartly sunny.5 mph82%29.95 "HgN/A
5:50 PM59 °FBroken clouds.6 mph82%29.95 "HgN/A
5:20 PM59 °FSprinkles. Broken clouds.3 mph82%29.95 "HgN/A
4:50 PM57 °FSprinkles. Partly sunny.5 mph88%29.95 "HgN/A
4:20 PM57 °FSprinkles. Partly sunny.5 mph88%29.95 "HgN/A
3:50 PM57 °FSprinkles. Broken clouds.5 mph88%29.98 "HgN/A
3:20 PM57 °FRain showers. Broken clouds.2 mph82%29.98 "HgN/A
2:50 PM57 °FSprinkles. Broken clouds.13 mph77%29.95 "HgN/A
2:20 PM66 °FBroken clouds.3 mph52%29.95 "HgN/A
1:50 PM68 °FPartly sunny.3 mph49%29.95 "HgN/A
1:20 PM66 °FPartly sunny.2 mph56%29.98 "HgN/A
12:50 PM66 °FPartly sunny.3 mph49%29.98 "HgN/A
12:20 PM64 °FPartly sunny.5 mph56%29.98 "HgN/A
11:50 AM64 °FPartly sunny.2 mph60%30.01 "HgN/A
11:20 AM64 °FScattered clouds.5 mph60%30.01 "HgN/A
10:50 AM63 °FPartly sunny.3 mph68%30.01 "HgN/A
10:20 AM61 °FScattered clouds.5 mph72%30.01 "HgN/A
9:50 AM59 °FPassing clouds.3 mph72%30.01 "HgN/A
9:20 AM59 °FPartly sunny.1 mph72%30.04 "HgN/A
8:50 AM55 °FPartly sunny.No wind82%30.04 "HgN/A
8:20 AM55 °FPartly sunny.No wind88%30.04 "HgN/A
7:50 AM55 °FPartly sunny.No wind82%30.04 "HgN/A
7:20 AM54 °FPartly sunny.No wind94%30.04 "HgN/A
6:50 AM54 °FPartly sunny.No wind88%30.04 "HgN/A
6:20 AM54 °FPassing clouds.1 mph88%30.04 "HgN/A
5:50 AM54 °FPassing clouds.No wind88%30.04 "HgN/A
5:20 AM54 °FPassing clouds.No wind82%30.04 "HgN/A
4:50 AM54 °FPassing clouds.1 mph88%30.04 "HgN/A
4:20 AM54 °FClear.1 mph88%30.04 "Hg10 mi
3:50 AM54 °FClear.1 mph88%30.04 "Hg10 mi
3:20 AM54 °FClear.5 mph88%30.04 "Hg10 mi
Weather by CustomWeather, © 2015

See weather overviewHow to use our weather pages